Location: Cond�
(48.8970°N, 2.8390°E)
Time: 03:43:27
(UTC+00:00)

Daily predictions for brighter satellites

Satellite Brightness Start Highest point End
(mag) Time Altitude Azimuth Time Altitude Azimuth Time Altitude Azimuth
USA 215 4.0 03:20:40 10° E 03:25:43 48° ENE 03:25:43 48° ENE
NOSS 3-3 (A) 4.5 03:44:27 80° E 03:44:27 80° E 03:52:36 10° SE
NOSS 3-3 (C) 4.5 03:44:32 80° ENE 03:44:32 80° ENE 03:52:42 10° SE
Cosmos 1943 Rocket 2.6 04:06:38 57° ESE 04:06:53 58° ESE 04:12:26 10° NE
CZ-2C R/B 3.9 04:04:41 10° SE 04:09:44 39° ENE 04:13:24 17° N
Cosmos 1241 Rocket 4.4 04:10:32 75° SE 04:10:32 75° SE 04:16:09 10° SE
CENTAUR R/B 2.6 04:16:08 64° S 04:17:01 74° SE 04:24:08 10° NE
Cosmos 2297 3.8 04:21:06 66° SSE 04:21:46 74° ESE 04:27:30 10° NNE
NOSS 3-2 (A) 3.2 04:27:50 82° WNW 04:27:57 82° NW 04:34:35 10° NE
Cosmos 2278 Rocket 3.8 04:33:50 21° N 04:33:50 21° N 04:36:11 10° NNE
Envisat 3.9 04:30:21 10° NNE 04:35:17 48° E 04:40:10 10° S
NOSS 3-2 (C) 3.5 04:33:35 42° SSW 04:35:32 71° SE 04:42:00 10° NE
SKYMED 2 4.1 04:32:10 10° SSE 04:36:24 55° ENE 04:37:12 47° NNE
Cosmos 2098 Rocket 4.2 04:38:33 10° SSE 04:42:15 42° E 04:46:53 10° NNE
Meteor 2-3 Rocket 3.6 04:37:04 10° SSW 04:42:44 87° W 04:48:31 10° NNE
Cosmos 968 Rocket 3.5 04:42:38 23° SSW 04:45:56 76° ESE 04:51:05 10° NNE
Landsat 5 4.3 04:41:39 10° SSE 04:46:04 55° ENE 04:48:26 26° N
Genesis I 4.4 04:49:23 36° S 04:49:23 36° S 04:51:57 10° SSE
Cosmos 921 Rocket 2.9 04:50:35 81° S 04:50:35 81° S 04:54:50 10° SSE
DNEPR-1 R/B 4.0 04:53:14 49° NNW 04:54:27 70° NE 04:59:55 10° SE
Meteor 1-26 Rocket 4.2 04:53:50 34° NNW 04:56:28 65° W 05:02:11 10° S
H-2A R/B 4.2 04:53:24 10° ESE 04:56:53 25° ENE 05:00:27 10° N
Cosmos 1812 2.7 04:56:57 78° E 04:56:57 78° E 05:00:44 10° SSE
USA 238 DEB 3.5 05:00:10 31° SW 05:03:37 77° NW 05:10:35 10° NE
USA 238 3.5 05:00:13 30° SW 05:03:43 77° NW 05:10:41 10° NE
Cosmos 1151 Rocket 3.0 05:01:35 30° N 05:03:45 83° E 05:08:08 10° S
Cosmos 2344 3.6 05:03:34 36° W 05:06:35 57° NW 05:14:37 10° NE
Cosmos 1766 Rocket 4.0 05:02:42 10° S 05:06:58 61° E 05:11:15 10° NNE
USA 215 3.2 05:03:23 10° SE 05:09:55 73° SW 05:13:03 33° WNW
Kosmos-917 3.7 05:12:30 60° NW 05:12:31 60° NW 05:17:33 10° NE
Meteor 1-31 Rocket 2.8 05:09:52 10° NNE 05:13:46 82° ESE 05:17:41 10° SSW
Cosmos 2279 Rocket 3.9 05:08:05 10° N 05:14:19 89° E 05:20:31 10° S
Cosmos 2297 Rocket 4.4 05:10:40 10° N 05:14:25 18° NE 05:18:09 10° ENE
Cosmos 1328 Rocket 3.6 05:12:41 14° N 05:16:26 80° E 05:20:47 10° SSE
SJ-12 3.8 05:15:05 10° N 05:19:12 65° WNW 05:23:17 10° SSW
FALCON 9 DEB 2.9 05:21:07 75° WNW 05:21:16 78° NNW 05:24:40 10° ENE
Cosmos 2369 Rocket 2.1 05:15:48 10° SSW 05:21:24 86° WNW 05:27:03 10° NNE
Cosmos 1862 3.2 05:19:17 10° S 05:23:14 87° E 05:27:12 10° N
COSMO-SKYMED 1 2.7 05:20:17 10° S 05:24:29 49° W 05:25:48 36° NW
H-2A R/B 2.7 05:23:34 10° N 05:27:10 50° WNW 05:30:47 10° SSW
Cosmos 1634 Rocket 4.2 05:23:17 10° NNW 05:29:17 48° W 05:35:12 10° SSW
CZ-4B R/B 3.7 05:33:03 10° NNE 05:36:32 46° E 05:39:59 10° S
Tsikada Rocket 4.5 05:33:03 10° SW 05:38:42 35° WNW 05:44:26 10° N
CZ-4B R/B 3.4 05:37:38 10° SE 05:40:29 27° ENE 05:43:20 10° N
YAOGAN 6 4.3 05:38:55 10° N 05:40:14 19° NNW 05:40:14 19° NNW
Cosmos 1408 Rocket 3.8 05:38:04 10° S 05:42:20 68° E 05:46:38 10° NNE
Cosmos 783 Rocket 4.5 05:37:37 12° NNW 05:42:32 87° ENE 05:47:44 10° SSE
Cosmos 1656 Rocket 3.5 05:39:40 10° SSW 05:45:04 78° WNW 05:50:34 10° NNE
CZ-4C R/B 3.1 05:42:28 10° S 05:45:26 40° W 05:46:01 36° WNW
Cosmos 1503 Rocket 4.0 05:40:16 10° SSW 05:45:33 87° ESE 05:50:56 10° NNE
DMSP B5D2-2 4.0 05:40:40 10° SSE 05:45:53 83° WSW 05:51:08 10° NNW
Cosmos 2227 Rocket 4.2 05:45:43 10° N 05:49:59 21° NE 05:54:13 10° E
CZ-2C R/B 3.2 05:45:02 10° SSW 05:50:03 36° W 05:54:54 10° NNW
Cosmos 1943 Rocket 3.0 05:48:15 21° W 05:50:59 30° NW 05:55:58 10° NNE
Cosmos 1486 Rocket 4.1 05:48:06 10° SW 05:53:16 52° WNW 05:58:27 10° NNE
Cosmos 1515 Rocket 3.4 05:52:22 10° NNW 05:56:45 72° W 06:01:04 10° S
SL-8 R/B 4.1 05:54:22 21° W 05:57:23 52° SSW 06:02:01 10° SE
FALCON 9 DEB 3.4 05:56:51 29° NW 05:57:44 37° N 06:00:29 10° ENE
Meteor 2-15 4.4 05:51:58 10° NNW 05:57:59 66° W 06:03:57 10° S
Meteor 1-27 Rocket 3.7 05:54:05 10° NNW 05:59:44 88° WSW 06:05:28 10° S
COSMOS 2487 3.6 06:00:36 10° N 06:03:47 39° ENE 06:06:57 10° SE
Cosmos 773 Rocket 4.0 05:58:57 10° NNW 06:04:11 71° WSW 06:09:20 10° SSE
FALCON 9 DEB 3.6 06:03:16 24° NW 06:04:23 34° N 06:07:03 10° ENE
FALCON 9 DEB 3.6 06:05:16 23° NW 06:06:28 33° N 06:09:07 10° ENE
SJ 16-02 2.1 06:02:35 10° S 06:06:52 56° ESE 06:11:10 10° NNE
NOAA 11 4.2 06:02:39 10° N 06:08:03 64° WNW 06:13:28 10° SSW
CENTAUR R/B 3.3 06:03:21 15° W 06:08:20 38° NNW 06:15:22 10° NE
Alouette 2 Rocket 3.3 06:06:11 10° NNW 06:10:14 78° ENE 06:13:46 10° SSE
NOAA 12 4.1 06:07:57 10° NNE 06:13:16 84° WNW 06:18:31 10° SSW
Meteor 2-19 Rocket 4.4 06:07:23 10° SSW 06:13:24 73° WNW 06:19:29 10° N
Envisat 3.8 06:09:49 10° N 06:14:04 27° WNW 06:18:18 10° WSW
Cosmos 1340 Rocket 3.0 06:11:11 10° S 06:15:07 77° E 06:19:08 10° NNE
Cosmos 2278 Rocket 4.2 06:16:40 10° NNW 06:17:16 10° NNW 06:17:52 10° NNW
SL-27 R/B 2.7 06:14:04 11° NNW 06:17:26 52° WSW 06:20:53 10° S
Cosmos 1500 Rocket 3.6 06:14:06 10° S 06:18:34 88° W 06:23:04 10° N
NOSS 3-2 (A) 4.4 06:15:14 13° WNW 06:19:49 30° NNW 06:25:55 10° NE
Cosmos 1939 Rocket 2.7 06:15:53 10° N 06:19:51 78° WNW 06:23:44 10° SSW
FALCON 9 DEB 3.6 06:21:30 16° WNW 06:23:27 34° N 06:26:10 10° ENE
Cosmos 2098 Rocket 4.3 06:20:24 10° WSW 06:23:38 22° WNW 06:27:29 10° NNW
NOSS 3-2 (C) 4.1 06:21:32 10° W 06:27:00 36° NNW 06:33:19 10° NE
Cosmos 1805 Rocket 3.8 06:25:50 10° S 06:30:12 73° E 06:34:35 10° NNE
Okean O Rocket 3.8 06:26:18 10° NNE 06:30:12 30° E 06:34:05 10° SSE
Sich 1 3.7 06:27:50 10° S 06:32:03 60° E 06:36:16 10° NNE
H-2A R/B 2.6 06:28:38 10° S 06:32:38 40° W 06:36:47 10° NNW
Cosmos 2026 Rocket 4.3 06:26:41 10° S 06:33:00 76° E 06:39:18 10° NNE
Meteor 1-25 Rocket 4.4 06:28:55 10° S 06:34:32 80° E 06:40:09 10° NNE
ATLAS 3B R/B 3.3 06:28:37 10° SSW 06:35:02 63° ESE 06:41:48 10° NE
ADEOS 4.2 06:33:33 10° N 06:38:12 33° WNW 06:42:49 10° SW
Cosmos 1174 3.5 06:35:25 10° SSW 06:38:21 67° SE 06:41:30 10° NE
Cosmos 1500 3.9 06:34:57 10° S 06:38:42 59° E 06:42:27 10° NNE
ATLAS 5 CENTAUR R/B 1.8 06:35:02 10° SSW 06:38:51 67° SE 06:43:11 10° NE
Cosmos 158 Rocket 4.0 06:34:27 10° NNW 06:39:34 77° WSW 06:44:47 10° SSE
Cosmos 1515 3.9 06:41:32 10° NNW 06:45:13 49° W 06:48:53 10° S
Cosmos 1354 Rocket 4.5 06:40:57 10° SW 06:45:53 39° WNW 06:50:54 10° NNE
Okean 1 3.3 06:42:14 10° N 06:46:14 88° W 06:50:10 10° S
CZ-2C R/B 3.4 06:42:14 10° N 06:46:39 36° WNW 06:51:11 10° SW
Meteor 1-18 Rocket 4.5 06:46:31 10° N 06:52:27 84° E 06:58:13 10° SSE
